Terug naar catalogus

FENGYUN 1C DEB

ActiefPO
NORAD 30907·DEBRIS·🇨🇳 China

Gelanceerd May 10, 1999 vanaf Taiyuan Satellite Launch Center

Loading…

Volgende Passages (komende 24 uur)

TLE

VerouderendSource: Space-Track

Epoch: Sep 4, 2026, 23:31 UTC

1 30907U 99025AYV 26247.98025531  .00000759  00000-0  40596-3 0  9996
2 30907  99.9295 303.3625 0057759 126.3350 234.3172 14.15866828 53165

Volg FENGYUN 1C DEB in realtime met AllMySat

Download on the App Store